Weather History for KPSX - October, 2011

Change the Weather History Date:

Friday, October 7, 2011

  Actual Average Record
Temperature  
Mean Temperature 83 °F -  
Max Temperature 90 °F 83 °F 94 °F (1956)
Min Temperature 77 °F 63 °F 45 °F (1952)
Cooling Degree Days 18    
Growing Degree Days 33 (Base 50)    
Moisture  
Dew Point 74 °F    
Average Humidity 79    
Maximum Humidity 96    
Minimum Humidity 59    
Precipitation  
Precipitation 0.05 in - - ()
Sea Level Pressure  
Sea Level Pressure 30.00 in    
Wind  
Wind Speed 15 mph (SE)    
Max Wind Speed 21 mph    
Max Gust Speed 28 mph    
Visibility 10 miles    
Events      
Averages and records for this station are not official NWS values.
T = Trace of Precipitation, MM = Missing Value Source: NWS Daily Summary

Daily Weather History Graph

Daily Weather History Graph

Search for Another Location

Airport or City:

Trip Planner

Search our weather history database for the weather conditions in past years. The results will help you decide how hot, cold, wet, or windy it might be!

Date:

Astronomy

Oct. 07, 2011 Rise Set
Actual Time 7:21 AM CDT 7:04 PM CDT
Civil Twilight 6:57 AM CDT 7:27 PM CDT
Nautical Twilight 6:30 AM CDT 7:55 PM CDT
Astronomical Twilight 6:02 AM CDT 8:22 PM CDT
Moon 4:32 PM CDT (10/7) 3:29 AM CDT (10/7)
Length of Visible Light 12h 30m
Length of Day
11h 42m
Waxing Gibbous, 83% of the Moon is Illuminated
Oct 7
Waxing Gibbous
Oct 11
Full
Oct 19
Last Quarter
Oct 26
New
Nov 2
First Quarter

Hourly Weather History & Observations

Time (CDT) Temp. Heat Index Dew Point Humidity Pressure Visibility Wind Dir Wind Speed Gust Speed Precip Events Conditions
12:53 AM 79.0 °F - 75.9 °F 90% 29.98 in 10.0 mi SE 17.3 mph - N/A   Partly Cloudy
1:53 AM 79.0 °F - 73.9 °F 84% 29.98 in 10.0 mi SE 16.1 mph 25.3 mph N/A   Clear
2:53 AM 79.0 °F - 75.0 °F 88% 29.97 in 10.0 mi SE 13.8 mph - N/A   Clear
3:53 AM 79.0 °F - 75.0 °F 88% 29.96 in 10.0 mi SE 13.8 mph - N/A   Partly Cloudy
4:53 AM 78.1 °F - 75.0 °F 90% 29.96 in 10.0 mi SE 9.2 mph - N/A   Clear
5:53 AM 79.0 °F - 75.0 °F 88% 29.97 in 10.0 mi SE 10.4 mph - N/A   Overcast
6:53 AM 80.1 °F 85.1 °F 75.0 °F 85% 29.99 in 10.0 mi SE 12.7 mph - N/A   Mostly Cloudy
7:53 AM 80.1 °F 84.5 °F 73.9 °F 81% 30.00 in 10.0 mi SE 9.2 mph - N/A   Partly Cloudy
8:53 AM 82.9 °F 89.4 °F 73.9 °F 74% 30.01 in 10.0 mi SE 15.0 mph - N/A   Clear
9:53 AM 84.9 °F 91.4 °F 73.0 °F 67% 30.02 in 10.0 mi SE 20.7 mph 25.3 mph N/A   Clear
10:53 AM 87.1 °F 94.5 °F 73.0 °F 63% 30.03 in 10.0 mi SE 16.1 mph 25.3 mph N/A   Partly Cloudy
11:53 AM 87.8 °F 95.6 °F 73.4 °F 62% 30.03 in 10.0 mi SE 18.4 mph 25.3 mph N/A   Mostly Cloudy
12:53 PM 88.0 °F 94.7 °F 72.0 °F 59% 30.03 in 10.0 mi SE 18.4 mph 27.6 mph N/A   Scattered Clouds
2:53 PM 87.1 °F 94.5 °F 73.0 °F 63% 29.99 in 10.0 mi SE 18.4 mph - N/A   Overcast
3:53 PM 86.0 °F 93.4 °F 73.4 °F 66% 29.98 in 10.0 mi ESE 17.3 mph 24.2 mph N/A   Overcast
4:53 PM 84.9 °F 92.1 °F 73.9 °F 69% 29.98 in 10.0 mi ESE 15.0 mph 25.3 mph N/A   Overcast
5:53 PM 84.0 °F 91.2 °F 73.9 °F 72% 29.98 in 10.0 mi ESE 17.3 mph - N/A   Scattered Clouds
6:53 PM 82.0 °F 88.6 °F 75.0 °F 79% 29.98 in 10.0 mi East 11.5 mph - N/A   Mostly Cloudy
7:53 PM 80.1 °F 85.1 °F 75.0 °F 85% 29.99 in 10.0 mi ESE 16.1 mph 23.0 mph N/A   Mostly Cloudy
8:53 PM 79.0 °F - 73.0 °F 82% 30.01 in 10.0 mi ESE 12.7 mph - N/A   Clear
9:53 PM 79.0 °F - 75.0 °F 88% 30.02 in 10.0 mi ESE 10.4 mph - N/A   Partly Cloudy
10:53 PM 78.1 °F - 75.0 °F 90% 30.02 in 10.0 mi ESE 8.1 mph - N/A   Scattered Clouds
11:53 PM 77.0 °F - 75.9 °F 96% 30.01 in 10.0 mi ESE 11.5 mph - 0.05 in   Overcast